Flag for U.S.A. Weather past 2 weeks in Farmington, New Mexico, U.S.A.

Now
64 °F

Partly sunny.


Feels Like: 64 °F
Forecast: 47 / 67 °F
Wind: 6 mph from West

Location: Four Corners Regional Airport


UV Index: 0 (Low)

Visibility: 10 mi


Pressure: 29.96 "Hg

Humidity: 32%

Dew point: 33 °F

Location of FarmingtonLocation

Historic Weather in Farmington

°F

Farmington temperature yesterday

Maximum temperature yesterday: 77 °F (at 3:53 PM)
Minimum temperature yesterday: 39 °F (at 6:53 AM)
Average temperature yesterday: 58 °F

Past Weeks' High & Low Weather Summary

 TemperatureHumidityPressure
High77 °F (Apr 11, 2:53 PM)90% (Apr 19, 6:53 AM)30.30 "Hg (Apr 19, 6:53 AM)
Low23 °F (Apr 15, 5:53 AM)4% (Apr 10, 5:53 PM)29.59 "Hg (Apr 12, 4:53 PM)
Average51 °F29%29.96 "Hg
* Reported Apr 4 12:53 PM — Apr 19 12:53 PM, Farmington, Weather by CustomWeather, © 2014

Note: Actual official high and low records may vary slightly from our data, if they occured in-between our weather recording intervals... More about our weather records

Advertising

Historic Weather Conditions — Data for Previous 24 hours

 ConditionsComfort  
Time TempWeatherWind HumidityBarometerVisibility
12:53 PM
Apr 19
64 °FPassing clouds.No wind33%29.97 "Hg10 mi
11:53 AM63 °FPassing clouds.No wind37%30.01 "Hg10 mi
10:53 AM61 °FSunny.6 mph41%30.02 "Hg10 mi
9:53 AM58 °FSunny.5 mph50%30.02 "Hg10 mi
8:53 AM53 °FPassing clouds.8 mph72%30.02 "Hg10 mi
7:53 AM48 °FPartly sunny.8 mph83%30.03 "Hg10 mi
6:53 AM45 °FPartly cloudy.6 mph90%30.01 "Hg10 mi
5:53 AM44 °FClear.5 mph89%30.00 "Hg10 mi
4:53 AM45 °FClear.6 mph86%29.98 "Hg10 mi
3:53 AM49 °FPassing clouds.5 mph84%29.96 "Hg10 mi
2:53 AM49 °FLight rain. Overcast.8 mph84%29.96 "Hg10 mi
1:53 AM54 °FLight rain. Overcast.7 mph59%29.96 "Hg10 mi
12:53 AM57 °FOvercast.9 mph44%29.96 "Hg10 mi
11:53 PM
Apr 18
57 °FMostly cloudy.3 mph39%29.96 "Hg10 mi
10:53 PM58 °FPassing clouds.7 mph36%29.94 "Hg10 mi
9:53 PM59 °FClear.10 mph33%29.94 "Hg10 mi
8:53 PM63 °FClear.16 mph26%29.92 "Hg10 mi
7:53 PM66 °FOvercast.14 mph23%29.90 "Hg10 mi
6:53 PM68 °FMostly cloudy.14 mph19%29.89 "Hg10 mi
5:53 PM71 °FScattered clouds.N/A16%29.84 "Hg10 mi
4:53 PM72 °FPartly sunny.26 mph14%29.84 "Hg10 mi
3:53 PM77 °FSunny.16 mph9%29.83 "Hg10 mi
2:53 PM76 °FSunny.8 mph10%29.87 "Hg10 mi
Weather by CustomWeather, © 2014

See weather overview